Home   Weather   Radom   Past weeks

Flag for Poland Past Weather in Radom, Poland — Yesterday and Last 2 Weeks

Now
22 °F

Fog.


Feels Like: 22 °F
Forecast: 17 / 24 °F
Wind: 1 mph from Northeast

Location: Kielce

Current Time: Jan 17, 2017 at 6:44:52 pm

Latest Report: Jan 17, 2017 at 6:00 pm


Visibility: 2 mi

Pressure: 30.61 "Hg

Humidity: 88%

Dew Point: 19 °F

Location of RadomLocation

Past Weather in Radom — Graph

°F

Radom Temperature Yesterday

Maximum temperature yesterday: 29 °F (at 2:00 pm)
Minimum temperature yesterday: 14 °F (at 11:00 pm)
Average temperature yesterday: 23 °F

High & Low Weather Summary for the Past Weeks

 TemperatureHumidityPressure
High37 °F (Jan 13, 7:00 pm)95% (Jan 2, 6:00 pm)30.67 "Hg (Jan 2, 6:00 pm)
Low-15 °F (Jan 8, 4:00 am)54% (Jan 11, 3:00 pm)29.32 "Hg (Jan 4, 6:00 pm)
Average19 °F82%30.07 "Hg
* Reported Jan 2 5:00 pm — Jan 17 5:00 pm, Radom, Weather by CustomWeather, © 2017

Note: Actual official high and low records may vary slightly from our data, if they occured in-between our weather recording intervals... More about our weather records

Advertising

Radom Weather History for the Previous 24 Hours

Scroll right to see more
 ConditionsComfort  
Time TempWeatherWind HumidityBarometerVisibility
5:00 pm
Tue, Jan 17
24 °FFog.1 mph84%30.59 "Hg3 mi
4:00 pm26 °FPassing clouds.1 mph76%30.57 "Hg7 mi
3:00 pm29 °FPassing clouds.2 mph69%30.55 "Hg11 mi
2:00 pm30 °FPassing clouds.3 mph70%30.54 "Hg9 mi
1:00 pm30 °FPassing clouds.2 mph74%30.53 "Hg6 mi
12:00 pm29 °FFog.1 mph81%30.53 "Hg2 mi
11:00 am25 °FFog.No wind92%30.54 "Hg2 mi
10:00 am22 °FFog.1 mph90%30.53 "Hg2 mi
9:00 am22 °FFog.1 mph91%30.52 "Hg2 mi
8:00 am20 °FFog.No wind90%30.50 "Hg1 mi
7:00 am19 °FFog.No wind89%30.48 "Hg1 mi
6:00 am18 °FFog.1 mph89%30.47 "Hg2 mi
5:00 am17 °FFog.No wind89%30.46 "Hg1 mi
4:00 am15 °FFog.1 mph89%30.45 "Hg1 mi
3:00 am12 °FFog.1 mph86%30.44 "Hg1 mi
2:00 am11 °FFog.1 mph88%30.43 "Hg1 mi
1:00 am12 °FFog.1 mph87%30.41 "Hg1 mi
12:00 am13 °FFog.No wind90%30.39 "Hg0 mi
11:00 pm
Mon, Jan 16
14 °FFog.1 mph89%30.38 "Hg1 mi
10:00 pm17 °FFog.1 mph91%30.37 "Hg0 mi
9:00 pm20 °FFog.1 mph92%30.34 "Hg1 mi
8:00 pm25 °FFog.1 mph89%30.31 "Hg1 mi
7:00 pm27 °FFog.No wind85%30.29 "Hg4 mi
6:00 pm28 °FFog.1 mph82%30.26 "Hg3 mi
Weather by CustomWeather, © 2017

See weather overviewHow to use our weather pages